XE2WR-3 Weather Reports


time (UTC)temp
C
wind
direction
speed
KPH
gust
KPH
rain 1hr
cm
rain 24hr
cm
rain mn
cm
humidity
%
barometer
mb
20260510113013 21 92 0.0 0.0 0.00 0.00 0.00 55 1010.9
20260510111506 21 89 0.0 0.0 0.00 0.00 0.00 26 1010.6
20260510110005 22 89 0.0 0.0 0.00 0.00 0.00 22 1010.6
20260510104502 22 89 0.0 0.0 0.00 0.00 0.00 24 1010.7
20260510103002 22 89 0.0 0.0 0.00 0.00 0.00 26 1010.7
20260510101559 22 89 0.0 1.6 0.00 0.00 0.00 32 1010.7
20260510100057 22 89 0.0 1.6 0.00 0.00 0.00 39 1010.8
20260510094555 22 89 0.0 4.8 0.00 0.00 0.00 40 1010.8
20260510093104 22 68 4.8 8.0 0.00 0.00 0.00 43 1010.8
20260510091555 22 86 4.8 8.0 0.00 0.00 0.00 44 1011.0
20260510090051 22 71 3.2 9.7 0.00 0.00 0.00 49 1011.0
20260510084551 22 75 6.4 11.3 0.00 0.00 0.00 55 1011.1
20260510083049 23 86 4.8 11.3 0.00 0.00 0.00 57 1011.1
20260510081605 23 98 6.4 11.3 0.00 0.00 0.00 61 1011.2
20260510080039 23 74 9.7 14.5 0.00 0.00 0.00 65 1011.2
20260510074535 23 68 9.7 17.7 0.00 0.00 0.00 68 1011.2
20260510073039 23 61 3.2 11.3 0.00 0.00 0.00 71 1011.3
20260510071529 23 97 4.8 8.0 0.00 0.00 0.00 77 1011.2
20260510070028 23 71 3.2 8.0 0.00 0.00 0.00 78 1011.2
20260510064535 23 67 0.0 4.8 0.00 0.00 0.00 78 1011.2
20260510063036 23 65 0.0 1.6 0.00 0.00 0.00 78 1011.4
20260510061527 23 65 0.0 1.6 0.00 0.00 0.00 79 1011.5
20260510060035 23 65 1.6 3.2 0.00 0.00 0.00 79 1011.6
20260510054523 23 65 0.0 4.8 0.00 0.00 0.00 79 1011.5
20260510053034 23 66 0.0 4.8 0.00 0.00 0.00 79 1011.5
20260510051523 24 67 3.2 6.4 0.00 0.00 0.00 79 1011.6
20260510050018 24 77 1.6 4.8 0.00 0.00 0.00 79 1011.6
20260510044536 24 68 4.8 11.3 0.00 0.00 0.00 79 1011.6
20260510043017 25 77 3.2 6.4 0.00 0.00 0.00 78 1011.5
20260510041516 25 74 1.6 6.4 0.00 0.00 0.00 77 1011.3
20260510040030 25 71 1.6 6.4 0.00 0.00 0.00 77 1011.3
20260510034517 25 101 0.0 4.8 0.00 0.00 0.00 75 1011.2
20260510033015 25 67 3.2 6.4 0.00 0.00 0.00 76 1011.1
20260510031515 25 73 1.6 4.8 0.00 0.00 0.00 75 1011.2
20260510030016 25 84 3.2 6.4 0.00 0.00 0.00 74 1010.9
20260510024514 25 118 4.8 8.0 0.00 0.00 0.00 73 1010.8
20260510023013 25 87 4.8 9.7 0.00 0.00 0.00 74 1010.6
20260510021511 25 82 4.8 8.0 0.00 0.00 0.00 75 1010.4
20260510020018 25 121 3.2 8.0 0.00 0.00 0.00 75 1010.1
20260510014511 25 115 4.8 9.7 0.00 0.00 0.00 75 1009.9
20260510013011 26 82 4.8 8.0 0.00 0.00 0.00 75 1009.6
20260510011514 26 141 4.8 20.9 0.00 0.00 0.00 74 1009.6
20260510010009 26 71 6.4 16.1 0.00 0.00 0.00 73 1009.4
20260510004509 26 76 8.0 14.5 0.00 0.00 0.00 74 1009.2
20260510003009 26 115 8.0 16.1 0.00 0.00 0.00 75 1009.2
20260510001507 26 86 8.0 17.7 0.00 0.00 0.00 76 1009.2
20260510000014 26 96 8.0 17.7 0.00 0.00 0.00 77 1009.1
20260509234508 26 79 8.0 19.3 0.00 0.00 0.00 76 1009.0
20260509233008 26 71 9.7 14.5 0.00 0.00 0.00 77 1008.8
20260509231505 26 74 8.0 14.5 0.00 0.00 0.00 77 1008.7
20260509230009 26 56 8.0 19.3 0.00 0.00 0.00 77 1008.7
20260509224504 26 88 9.7 16.1 0.00 0.00 0.00 76 1008.6
20260509223004 26 61 9.7 17.7 0.00 0.00 0.00 76 1008.6
20260509221502 26 56 8.0 16.1 0.00 0.00 0.00 77 1008.6
20260509220001 26 121 8.0 16.1 0.00 0.05 0.00 76 1008.7
20260509214501 26 84 9.7 19.3 0.00 0.05 0.00 77 1008.7
20260509213102 26 58 8.0 16.1 0.00 0.05 0.00 76 1008.7
20260509211606 26 60 9.7 16.1 0.00 0.05 0.00 77 1009.0
20260509210059 26 87 9.7 14.5 0.00 0.05 0.00 76 1009.1
20260509204558 26 54 6.4 16.1 0.00 0.05 0.00 76 1009.2
20260509203106 26 93 6.4 14.5 0.00 0.05 0.00 77 1009.5
20260509201602 25 62 6.4 14.5 0.00 0.05 0.00 77 1009.8
20260509200106 25 75 8.0 16.1 0.00 0.05 0.00 78 1009.9
20260509194550 25 86 4.8 14.5 0.00 0.05 0.00 78 1010.1
20260509193109 25 124 9.7 19.3 0.00 0.05 0.00 78 1010.5
20260509191546 24 89 8.0 14.5 0.00 0.05 0.00 79 1010.8
20260509190046 23 62 3.2 12.9 0.00 0.05 0.00 79 1011.1
20260509184553 23 63 4.8 14.5 0.00 0.05 0.00 78 1011.3
20260509183042 22 94 4.8 9.7 0.00 0.05 0.00 74 1011.4
20260509181545 21 60 1.6 9.7 0.00 0.05 0.00 65 1011.7
20260509180041 21 86 6.4 11.3 0.00 0.05 0.00 64 1011.9
20260509174540 21 117 6.4 9.7 0.00 0.05 0.00 56 1012.0
20260509173044 21 96 8.0 12.9 0.00 0.05 0.00 61 1012.3
20260509171544 21 88 9.7 14.5 0.00 0.05 0.00 61 1012.3
20260509170036 21 90 9.7 17.7 0.00 0.05 0.00 55 1012.5
20260509164538 21 82 6.4 16.1 0.00 0.05 0.00 51 1012.5
20260509163032 21 60 8.0 16.1 0.00 0.05 0.00 44 1012.6
20260509161533 21 73 12.9 19.3 0.00 0.05 0.00 50 1012.6
20260509160026 22 96 6.4 12.9 0.00 0.05 0.00 69 1012.3
20260509154526 22 85 9.7 14.5 0.00 0.05 0.00 74 1012.3
20260509153024 22 114 3.2 11.3 0.00 0.05 0.00 74 1012.3
20260509151522 22 65 8.0 11.3 0.00 0.05 0.00 76 1012.2
20260509150019 22 83 8.0 14.5 0.00 0.05 0.00 74 1012.0
20260509144520 22 108 6.4 14.5 0.00 0.05 0.00 74 1012.1
20260509143023 22 104 1.6 9.7 0.00 0.05 0.00 71 1011.8
20260509141523 22 129 6.4 12.9 0.00 0.05 0.00 68 1011.7
20260509140015 22 148 1.6 9.7 0.00 0.05 0.00 66 1011.7
20260509134514 23 166 1.6 8.0 0.00 0.05 0.00 73 1011.6
20260509133011 23 36 0.0 1.6 0.00 0.05 0.00 59 1011.3
20260509131515 22 35 0.0 0.0 0.00 0.05 0.00 47 1011.1
20260509130010 22 36 0.0 1.6 0.00 0.05 0.00 52 1011.0
20260509124504 22 35 0.0 0.0 0.00 0.05 0.00 47 1010.7
20260509123003 22 35 0.0 0.0 0.00 0.05 0.00 48 1010.5
20260509121604 22 36 0.0 3.2 0.00 0.05 0.00 42 1010.1
20260509120107 22 36 1.6 6.4 0.00 0.05 0.00 38 1009.8
20260509114601 22 65 0.0 1.6 0.00 0.05 0.00 43 1009.4